Temperature
7 7 7 7 8 8 8 8 8 8 8 8 8 8 8 8 7 7 7 7 7 7 7 7 7 7 7 7 7 7 7 7 7 7 7 7 7 8 8 8 7 7 7
6 6 6 7 7 7 7 7 7 7 7 7 7 7 7 7 7 7 7 7 7 7 6 6 6 6 6 6 6 6 6 6 6 6 6 6 6 6 7 7 7 7 7
6 6 6 6 6 7 7 7 7 6 7 7 6 6 6 6 6 6 6 6 6 6 6 6 6 6 6 6 5 5 5 5 5 5 5 5 6 5 6 6 6 6 6
6 6 6 6 6 6 6 6 6 6 6 6 6 6 6 6 6 6 6 6 5 5 5 5 5 5 5 5 5 5 5 5 5 5 5 5 5 4 5 5 5 6 6
5 5 5 5 6 6 6 5 5 5 5 5 5 5 5 5 5 5 5 5 5 5 5 5 4 4 4 4 4 4 4 4 4 4 4 4 4 4 4 4 5 5 5
4 4 4 5 5 5 5 5 5 5 5 5 5 5 5 4 4 4 4 4 4 4 4 4 4 4 4 4 4 4 4 4 4 4 4 4 3 3 3 3 4 4 4
4 4 4 4 4 4 5 5 5 5 5 4 4 4 4 4 4 4 4 4 4 4 4 3 3 3 3 3 3 3 3 3 3 3 3 3 3 3 3 3 3 3 3
4 3 3 3 4 4 4 4 4 4 4 4 4 4 3 3 3 3 3 3 3 3 3 3 3 3 3 3 3 3 3 3 3 3 3 3 2 2 2 2 2 2 2
3 3 3 3 3 4 4 4 4 4 4 4 4 3 3 3 3 3 3 3 3 3 3 3 3 2 2 2 2 2 2 2 2 2 2 2 2 2 2 2 2 2 2
3 3 3 3 3 3 4 4 4 4 3 3 3 3 3 3 3 3 2 2 2 2 2 2 2 2 2 2 2 1 1 1 2 2 2 2 1 1 1 1 1 1 1
3 3 3 3 3 3 3 3 3 3 3 3 3 2 2 2 2 2 2 2 2 2 2 2 1 1 1 1 1 1 1 1 1 1 1 1 1 1 1 1 1 1 1
3 3 3 2 3 3 3 3 3 3 2 2 2 2 2 2 2 1 2 2 2 1 1 1 1 1 1 1 1 1 1 1 1 1 1 1 1 0 0 0 0 0 0
3 2 2 2 2 2 2 2 2 2 2 2 1 1 1 1 1 1 1 1 1 1 1 1 1 1 1 0 0 0 0 0 0 0 0 0 0 0 0 -0 -0 -0 0
2 2 2 2 2 2 2 2 2 1 1 1 1 1 1 1 1 1 1 1 1 1 0 0 0 0 -0 -0 -0 -0 -0 -0 -0 -0 0 0 0 0 -0 -0 -0 -0 -0
2 2 2 2 2 2 2 1 1 1 1 1 0 1 1 0 0 0 0 0 0 -0 -0 -0 -0 -0 -1 -1 -1 -1 -1 -1 -1 -1 -1 -0 -0 -1 -1 -1 -1 -1 -1
2 1 1 1 1 1 1 1 1 1 0 0 0 0 -0 -0 -0 -0 -0 -0 -1 -1 -1 -1 -1 -1 -1 -1 -1 -1 -1 -1 -1 -1 -1 -1 -1 -1 -1 -1 -1 -1 -1
1 1 1 1 1 1 1 1 0 0 -0 -0 -0 -1 -1 -1 -1 -1 -1 -1 -1 -1 -1 -1 -1 -1 -1 -1 -1 -2 -2 -2 -2 -1 -1 -1 -1 -1 -1 -1 -1 -1 -1
1 1 1 0 0 0 0 0 -0 -0 -0 -1 -1 -1 -1 -1 -1 -1 -1 -1 -1 -2 -2 -2 -2 -2 -2 -2 -2 -2 -2 -2 -2 -2 -2 -2 -2 -1 -2 -2 -2 -2 -2
1 1 1 0 -0 -0 -0 -0 -1 -1 -1 -1 -1 -1 -1 -2 -2 -2 -2 -2 -2 -2 -2 -2 -2 -2 -2 -2 -2 -2 -2 -2 -2 -2 -2 -2 -2 -2 -2 -2 -2 -2 -2
1 0 -0 -0 -1 -0 -1 -1 -1 -1 -1 -1 -1 -2 -2 -2 -2 -2 -2 -2 -2 -2 -2 -2 -2 -2 -2 -2 -2 -3 -3 -3 -3 -3 -3 -3 -3 -3 -3 -3 -3 -3 -2
0 -0 -0 -1 -1 -1 -1 -1 -1 -1 -2 -2 -2 -2 -2 -2 -2 -2 -2 -3 -3 -3 -3 -3 -3 -3 -3 -3 -3 -3 -3 -3 -3 -3 -3 -3 -3 -3 -3 -3 -3 -3 -3
-0 -1 -1 -1 -1 -1 -1 -1 -2 -2 -2 -2 -2 -2 -2 -2 -2 -2 -3 -3 -3 -3 -3 -3 -3 -3 -3 -3 -3 -3 -4 -4 -4 -3 -3 -3 -3 -3 -3 -3 -3 -3 -3
-1 -1 -1 -1 -1 -2 -2 -2 -2 -2 -2 -3 -3 -3 -3 -3 -3 -3 -3 -3 -3 -4 -4 -4 -4 -4 -4 -4 -4 -4 -4 -4 -4 -4 -4 -4 -4 -4 -3 -3 -3 -3 -3
-1 -2 -2 -2 -2 -2 -2 -2 -2 -3 -3 -3 -3 -3 -3 -3 -3 -3 -3 -3 -4 -4 -4 -4 -4 -4 -4 -4 -4 -4 -4 -4 -4 -4 -4 -4 -4 -4 -4 -4 -4 -4 -3
-2 -2 -2 -2 -2 -2 -2 -3 -3 -3 -3 -3 -3 -3 -3 -4 -3 -4 -4 -4 -4 -4 -4 -4 -4 -4 -4 -4 -4 -4 -4 -4 -4 -4 -4 -4 -4 -4 -4 -4 -4 -4 -4
-2 -3 -3 -3 -3 -3 -3 -3 -3 -3 -3 -3 -4 -4 -4 -4 -4 -4 -4 -4 -4 -4 -4 -4 -4 -4 -5 -5 -5 -5 -5 -5 -5 -4 -5 -5 -4 -4 -5 -5 -4 -4 -4
Wind_Speed
4 3 2 2 2 2 2 3 3 3 3 2 2 2 2 2 2 2 2 3 3 4 4 3 3 3 3 4 4 3 3 3 2 3 4 4 5 4 4 4 4 4 4
5 4 3 2 2 2 2 3 3 3 3 3 2 2 2 2 3 2 3 3 4 4 4 4 3 4 3 4 4 4 3 3 2 2 3 3 3 4 4 4 4 4 4
6 5 4 3 2 2 2 2 3 3 3 3 2 2 2 2 3 3 3 4 4 4 4 4 4 4 4 4 4 5 5 4 4 3 3 3 3 3 3 5 4 4 4
6 5 5 4 3 2 2 2 3 3 3 3 3 4 3 4 4 3 3 4 4 4 4 4 5 4 4 4 5 5 5 5 4 4 4 4 3 3 3 4 4 5 5
5 5 5 4 4 3 2 2 3 3 3 3 4 4 4 4 3 3 4 4 4 4 4 4 4 5 4 5 5 5 5 5 5 4 3 4 4 5 5 5 5 5 5
5 4 4 3 3 3 2 2 3 3 3 4 4 4 4 4 4 3 3 3 3 3 4 4 4 5 4 5 5 5 6 6 6 5 4 4 4 4 5 6 6 6 5
4 4 4 4 3 3 2 2 3 3 3 4 4 4 4 4 5 4 4 4 3 3 3 3 4 4 4 5 5 6 6 6 6 6 5 5 5 5 5 6 6 6 5
3 3 3 4 3 3 3 3 3 3 3 3 4 4 4 4 4 4 4 4 4 4 4 4 4 4 5 5 5 5 6 5 6 6 6 5 5 5 5 5 5 6 6
3 3 2 3 3 3 3 3 3 3 3 3 3 3 4 4 4 4 4 4 4 3 4 4 4 4 4 5 5 5 6 6 6 6 6 6 5 5 5 5 6 6 6
2 2 1 2 2 3 3 3 3 3 3 3 3 3 3 4 4 4 4 4 4 4 4 4 4 4 5 5 5 5 6 6 6 5 7 6 5 6 5 5 6 6 6
2 2 2 2 3 3 3 2 3 3 3 3 3 3 3 3 4 4 4 4 4 4 4 4 4 4 5 5 5 6 6 6 6 6 7 7 7 6 5 5 5 6 6
3 3 3 3 3 3 3 3 3 3 3 3 3 3 4 4 4 4 4 4 4 4 4 4 5 5 5 5 6 6 6 7 7 7 7 7 6 7 6 5 6 6 6
3 3 3 4 4 4 3 3 3 3 3 3 3 3 4 4 4 5 4 4 5 4 4 4 5 5 5 5 6 6 6 6 6 7 7 7 7 7 6 6 6 5 5
4 4 4 4 4 4 4 4 4 4 4 3 4 4 4 4 4 4 4 4 4 4 4 4 4 4 5 5 5 5 5 5 5 6 6 7 7 7 7 6 6 5 5
5 5 5 5 4 3 3 3 3 3 4 4 4 4 4 4 4 4 4 4 4 4 4 4 4 4 4 4 4 4 5 5 5 5 6 6 7 8 7 6 5 5 5
7 6 5 5 4 4 4 3 3 3 4 4 4 4 4 4 4 4 4 4 4 3 3 4 4 4 3 4 5 4 5 5 5 5 5 5 5 6 7 8 7 7 6
7 6 6 5 5 4 4 4 4 4 4 4 4 4 4 4 4 4 4 4 4 3 3 4 4 4 4 4 4 5 5 5 5 5 4 4 3 4 4 4 5 6 7
7 6 6 5 4 4 4 3 3 4 3 4 4 4 4 4 4 4 4 4 3 3 4 3 3 3 4 4 4 4 4 4 4 4 4 4 4 3 3 3 4 4 5
7 6 5 4 4 4 4 3 3 3 4 4 4 4 4 4 4 4 4 3 3 3 3 3 3 3 3 3 4 4 3 3 4 4 4 4 4 4 4 3 3 4 4
4 4 4 4 4 4 3 3 4 4 4 4 4 4 4 4 4 4 3 3 3 3 3 3 3 3 3 3 4 4 3 3 3 3 4 4 4 4 4 3 3 4 4
4 4 4 4 4 3 3 3 4 5 4 4 3 3 3 3 3 3 3 3 3 3 3 2 2 3 3 3 4 4 3 3 3 3 3 3 4 4 4 4 4 5 5
4 4 3 4 3 3 3 3 4 4 3 3 3 3 3 2 2 2 2 3 3 3 2 2 2 2 2 3 3 4 4 4 3 3 3 3 3 4 5 4 4 5 4
4 3 3 4 3 3 3 4 3 2 2 2 2 2 2 2 2 2 2 2 2 2 2 1 1 1 1 2 3 4 4 4 3 3 3 3 4 4 3 3 4 3 3
4 3 3 3 3 3 3 3 3 2 2 2 2 1 1 1 1 2 2 2 2 2 2 2 2 1 1 2 2 2 2 2 2 2 2 2 3 2 2 2 2 2 2
3 3 4 4 4 3 3 3 2 2 2 2 2 1 1 1 1 1 2 2 3 3 3 2 2 2 2 3 3 3 2 2 2 1 1 1 1 1 1 1 1 2 2
3 3 4 4 4 3 3 3 2 2 2 2 2 1 1 1 1 1 1 1 2 2 3 3 2 2 3 4 4 3 3 3 2 2 1 1 1 2 2 2 2 2 2
Wind_Direction
230 219 213 198 184 201 201 196 190 195 192 188 198 201 204 207 218 226 232 231 233 232 235 235 229 228 233 240 241 247 254 265 272 279 285 273 254 246 250 247 251 258 269
220 213 209 205 199 205 212 212 205 204 201 206 212 220 222 226 225 232 239 240 238 235 238 234 232 232 238 241 240 240 245 259 250 262 280 269 248 228 243 251 259 265 268
221 213 206 206 207 213 218 223 221 213 205 204 197 193 204 223 226 228 234 243 242 237 239 244 240 235 234 238 242 237 241 246 249 252 250 261 258 299 244 243 250 261 268
224 217 213 214 222 229 222 224 226 214 208 206 204 206 218 229 237 236 236 240 240 240 240 246 241 238 236 240 242 243 250 243 243 251 255 267 278 270 273 249 248 261 266
228 223 219 219 226 229 222 218 225 216 213 211 211 217 228 235 236 236 235 238 237 239 241 245 243 238 238 242 245 244 245 246 243 245 250 254 257 256 260 271 271 275 272
232 227 223 221 226 229 221 216 221 226 216 213 216 219 229 235 238 243 244 248 246 240 241 250 248 244 243 245 246 245 243 244 244 245 243 247 248 250 256 266 274 278 276
229 224 223 224 230 233 234 227 227 231 223 218 222 227 235 238 241 247 248 253 255 256 254 254 251 250 250 250 247 246 245 244 242 241 242 247 252 255 257 263 272 280 282
232 228 229 230 233 236 237 235 236 238 237 230 231 233 235 239 245 247 248 249 252 256 262 260 256 257 254 249 244 247 246 245 243 243 244 248 252 253 252 254 264 275 276
235 232 234 241 244 243 239 236 233 237 236 231 236 240 242 241 246 249 249 250 253 254 252 256 256 256 253 248 245 242 244 245 245 244 245 248 251 252 252 252 249 255 269
243 244 254 258 258 259 257 243 232 233 231 226 230 238 243 243 246 246 245 249 252 253 252 256 256 255 252 249 246 247 246 246 247 247 245 247 251 251 248 247 250 248 255
258 267 279 276 266 263 263 253 233 231 231 231 233 237 245 247 248 245 243 243 246 247 251 254 255 256 255 250 246 245 248 246 248 249 247 248 251 252 253 248 248 248 250
290 284 279 277 273 264 259 257 244 236 239 239 241 242 248 247 243 245 244 242 242 243 247 249 250 252 253 251 248 248 248 247 248 249 249 251 253 256 257 255 253 252 252
285 280 277 276 275 270 260 259 259 249 248 244 242 242 249 248 246 244 244 243 240 241 241 242 246 249 251 250 250 249 248 249 251 251 251 253 254 256 257 259 258 257 259
269 269 274 279 280 274 264 261 265 258 251 245 245 245 249 251 246 244 244 243 241 240 240 244 249 251 252 253 255 251 249 250 254 256 257 256 254 255 257 258 255 254 259
262 262 269 278 283 281 274 265 268 267 261 254 251 251 254 252 247 242 242 243 241 241 243 245 250 252 250 252 255 249 248 252 258 262 263 263 261 260 258 255 250 247 252
268 264 265 272 276 274 272 268 270 273 266 258 256 259 258 252 243 240 238 240 240 240 237 238 242 247 249 253 257 260 252 251 255 264 270 270 266 265 261 256 256 249 248
269 264 262 265 268 268 266 265 269 272 263 263 263 264 261 253 248 241 235 235 239 240 239 239 240 248 252 253 256 261 259 255 256 262 268 273 273 273 271 268 268 266 261
264 263 262 267 269 268 269 271 270 270 263 262 266 263 258 254 251 244 239 240 240 239 239 239 242 254 256 253 263 261 262 264 264 264 264 268 273 272 277 281 285 283 278
267 262 260 264 264 265 268 265 267 267 261 260 262 261 256 250 247 244 246 245 240 241 241 235 238 249 258 253 262 265 267 264 267 267 265 265 266 274 280 278 284 291 292
264 258 263 262 260 263 259 254 265 266 262 264 265 264 255 245 243 244 246 246 241 242 240 239 242 247 256 256 258 264 258 264 271 271 266 263 270 276 279 272 270 277 285
270 262 259 259 261 260 249 249 258 262 267 269 266 263 258 248 244 244 240 235 236 239 235 239 247 249 254 255 259 269 266 263 271 271 269 265 268 281 285 283 272 277 290
271 262 264 270 270 256 245 251 259 269 271 265 260 261 261 254 242 235 233 229 223 222 226 232 257 261 259 259 267 276 276 279 268 268 271 270 271 282 287 287 291 298 297
272 270 267 275 276 258 249 255 269 276 265 261 259 261 261 247 230 223 222 217 211 215 220 222 248 277 288 278 274 274 276 281 275 272 275 282 279 277 278 280 288 287 280
269 269 263 267 275 269 266 267 275 267 249 247 253 251 248 241 220 216 215 207 207 209 211 222 241 263 279 283 285 282 281 271 275 280 271 281 289 273 271 280 281 274 276
274 266 259 263 269 269 273 278 273 254 239 237 237 236 238 236 218 215 216 216 219 219 223 232 240 245 265 282 291 293 290 294 284 289 278 275 274 282 291 294 293 289 285
273 268 265 265 265 255 262 267 258 244 229 223 222 224 226 221 211 205 198 203 233 244 254 262 261 264 273 283 285 292 300 306 294 278 255 252 262 274 280 284 290 292 292
Height
1481 1481 1482 1482 1482 1484 1484 1485 1486 1487 1488 1488 1489 1489 1490 1491 1491 1492 1492 1492 1493 1493 1493 1494 1494 1494 1494 1495 1495 1495 1495 1495 1495 1494 1494 1492 1491 1490 1490 1490 1490 1490 1489
1478 1478 1479 1479 1480 1481 1482 1482 1483 1483 1484 1485 1485 1486 1487 1487 1488 1488 1488 1489 1489 1489 1489 1490 1490 1490 1491 1491 1491 1491 1491 1491 1491 1491 1491 1490 1490 1487 1487 1486 1486 1486 1485
1475 1475 1476 1476 1477 1478 1479 1479 1479 1480 1481 1482 1482 1483 1483 1484 1484 1484 1484 1485 1485 1485 1485 1485 1486 1486 1487 1487 1487 1487 1487 1487 1488 1488 1489 1488 1486 1485 1484 1483 1482 1482 1482
1472 1472 1473 1473 1474 1475 1476 1476 1477 1477 1478 1478 1478 1479 1480 1480 1480 1480 1480 1481 1481 1481 1481 1481 1481 1482 1482 1482 1483 1483 1483 1483 1483 1483 1483 1484 1483 1483 1481 1480 1479 1478 1478
1469 1470 1470 1471 1472 1472 1473 1473 1474 1474 1475 1475 1475 1476 1476 1476 1476 1476 1477 1477 1477 1477 1477 1477 1477 1478 1478 1478 1479 1479 1479 1479 1479 1479 1479 1479 1479 1479 1479 1477 1476 1475 1474
1467 1467 1468 1469 1469 1469 1470 1471 1471 1471 1471 1472 1472 1472 1472 1472 1472 1472 1473 1473 1472 1472 1473 1473 1473 1473 1474 1474 1474 1474 1474 1474 1474 1474 1475 1475 1475 1475 1475 1474 1472 1471 1470
1464 1465 1465 1466 1466 1466 1467 1468 1468 1468 1468 1468 1468 1468 1469 1469 1468 1469 1469 1469 1468 1468 1468 1469 1469 1469 1469 1470 1470 1470 1470 1470 1470 1470 1470 1470 1470 1471 1471 1470 1468 1467 1465
1462 1462 1463 1463 1464 1464 1464 1464 1465 1465 1465 1465 1465 1465 1465 1465 1465 1465 1465 1465 1464 1464 1464 1465 1465 1465 1465 1466 1466 1466 1466 1465 1465 1465 1466 1466 1466 1466 1466 1466 1465 1463 1462
1460 1460 1460 1461 1461 1461 1461 1462 1462 1462 1461 1461 1461 1461 1461 1461 1461 1461 1461 1461 1461 1460 1460 1461 1461 1461 1461 1461 1461 1461 1461 1461 1461 1461 1461 1461 1461 1461 1461 1461 1461 1461 1458
1459 1459 1458 1459 1459 1459 1459 1459 1459 1458 1458 1458 1458 1457 1458 1457 1457 1457 1457 1457 1457 1456 1456 1456 1456 1457 1457 1457 1457 1457 1456 1456 1456 1456 1456 1456 1456 1456 1456 1456 1456 1455 1455
1457 1457 1457 1457 1457 1457 1456 1456 1456 1455 1455 1454 1454 1454 1454 1453 1453 1453 1453 1453 1453 1453 1453 1453 1452 1452 1452 1452 1452 1452 1452 1452 1452 1452 1452 1451 1452 1452 1452 1451 1451 1451 1450
1456 1455 1455 1455 1454 1454 1453 1453 1452 1452 1451 1451 1451 1450 1450 1450 1449 1449 1449 1449 1449 1449 1449 1449 1448 1448 1448 1448 1448 1447 1447 1447 1447 1447 1447 1447 1447 1447 1447 1447 1446 1446 1445
1454 1454 1453 1452 1452 1451 1450 1450 1449 1448 1448 1448 1447 1447 1446 1446 1445 1445 1445 1445 1445 1445 1445 1444 1444 1444 1444 1444 1444 1443 1443 1443 1443 1443 1443 1442 1442 1442 1442 1442 1441 1441 1441
1452 1452 1451 1450 1449 1448 1447 1446 1446 1445 1445 1444 1444 1443 1442 1442 1441 1441 1441 1441 1441 1440 1440 1440 1440 1440 1440 1440 1439 1439 1439 1439 1439 1439 1438 1438 1438 1437 1437 1437 1437 1437 1436
1450 1449 1448 1446 1446 1445 1444 1443 1442 1442 1441 1441 1440 1439 1438 1438 1437 1437 1436 1436 1436 1436 1436 1436 1436 1436 1436 1436 1436 1435 1435 1435 1435 1435 1434 1433 1433 1433 1433 1433 1433 1433 1432
1446 1445 1444 1443 1442 1441 1440 1440 1439 1438 1438 1437 1436 1435 1435 1434 1433 1433 1433 1432 1432 1432 1432 1432 1432 1432 1432 1432 1432 1432 1432 1432 1431 1431 1430 1430 1429 1429 1429 1429 1429 1429 1429
1443 1442 1441 1440 1439 1438 1437 1436 1436 1435 1434 1433 1432 1432 1431 1430 1430 1429 1429 1429 1428 1429 1429 1429 1429 1428 1429 1429 1429 1429 1429 1428 1428 1428 1427 1426 1426 1426 1425 1425 1425 1425 1425
1439 1438 1438 1437 1436 1435 1434 1433 1432 1431 1430 1430 1429 1428 1427 1426 1426 1425 1425 1425 1425 1425 1425 1425 1425 1425 1425 1426 1426 1426 1426 1425 1425 1425 1424 1424 1423 1423 1423 1422 1422 1421 1421
1435 1435 1434 1433 1432 1431 1430 1429 1428 1428 1427 1426 1425 1424 1423 1423 1422 1422 1422 1422 1422 1422 1422 1422 1422 1422 1422 1422 1423 1423 1422 1422 1422 1422 1421 1421 1420 1420 1420 1419 1418 1418 1418
1432 1431 1430 1429 1428 1428 1427 1426 1425 1424 1423 1423 1422 1421 1420 1420 1419 1419 1419 1419 1419 1419 1419 1419 1419 1419 1419 1419 1419 1420 1419 1419 1419 1418 1418 1418 1418 1418 1417 1417 1416 1415 1415
1428 1428 1427 1426 1425 1424 1423 1422 1422 1421 1420 1419 1418 1418 1417 1417 1416 1416 1416 1416 1416 1416 1416 1416 1416 1417 1417 1417 1417 1417 1417 1416 1416 1416 1416 1415 1415 1415 1415 1414 1414 1413 1412
1425 1424 1423 1422 1422 1421 1420 1419 1419 1418 1417 1416 1415 1415 1414 1414 1414 1414 1414 1414 1414 1414 1414 1414 1414 1414 1414 1414 1414 1414 1414 1414 1414 1413 1413 1413 1413 1412 1412 1411 1411 1410 1410
1421 1421 1420 1419 1418 1418 1417 1416 1416 1415 1414 1413 1413 1412 1412 1412 1411 1411 1411 1411 1411 1411 1411 1412 1412 1412 1412 1412 1412 1412 1412 1412 1411 1411 1411 1410 1410 1409 1409 1408 1408 1408 1407
1418 1417 1417 1416 1415 1415 1414 1414 1413 1412 1412 1411 1410 1410 1410 1409 1409 1409 1409 1409 1409 1409 1409 1409 1410 1410 1410 1410 1410 1410 1410 1409 1409 1409 1408 1408 1407 1407 1406 1406 1406 1405 1405
1415 1414 1414 1413 1412 1412 1411 1411 1410 1410 1409 1408 1408 1408 1407 1407 1407 1407 1407 1407 1407 1407 1408 1408 1408 1408 1407 1408 1408 1408 1408 1407 1407 1406 1406 1405 1405 1405 1404 1404 1403 1403 1402
1411 1411 1410 1409 1409 1409 1408 1408 1408 1407 1407 1406 1406 1405 1405 1405 1405 1405 1405 1405 1406 1406 1406 1406 1406 1406 1406 1406 1406 1406 1406 1405 1405 1405 1404 1403 1403 1402 1402 1402 1401 1401 1400